logo dgac
Domingo 21 de Abril del 2019
Buscar por aerodromo o helipuerto
Ingrese nombre de aeródromo, localidad o designador OACI:

Aeródromo: Melinka (PUB) (SCMK)

Ubicación: Melinka, XI Región, Chile (43º 53' 42'' S, 73º 44' 20'' W) Ver ubicación en el mapa

Pistas

Orientación Dimensión Pendiente Superficie Resistencia APCH THR RWY PAPI
18/36 800 x 18 1,00 ASPH 13.500 kg No No No No
Horas de operación HJ
Elevación 11 m / 35 ft
Otra Información Adm : D.G.A.C.
Uso : PUB
TEL (067) 2431515 / CEL 971084195
Ubicado a 500 m NE Melinka

Cámara de Aeródromo www.dgac.gob.cl

Otra información ver AIP-Chile Volumen I AD 3.9-11.1-M y VAC/#
CCCM/FCCV Descargar
andera de Chile
Mapa de Melinka (PUB) (SCMK)

Último METAR

METAR SCMK 201700Z 19009KT 9999 BKN020 12/09 Q1020

Último TAF

No hay tafs registrados para este aeródromo

Últimas fotos cámaras

Imagen aerodromo Melinka (PUB) (SCMK) Sur tomada el 21-04-2019 05:06:51 Imagen aerodromo Melinka (PUB) (SCMK) Norte tomada el 21-04-2019 05:07:59

Último NOTAM

C1157/19 NOTAMN Q)SCTZ/QSFAH/IV/BO/A/000/999/4354S07344W005 A)SCMK B)1904062359 C)PERM D)IVNO MON-FRI BTN 1230-2230 SAT BTN 1230-1730 VRNO MON-FRI BTN 1130-2130 SAT BTN 1130-1630 E)HR ATTN AFIS SUN AND OTHR O/R TEL CEL AD 971084195

LLegadas a Melinka (PUB) (SCMK)

En vuelo

Vuelo Procedencia Hora Despegue Local Hora Arribo Local

Salidas de Melinka (PUB) (SCMK)

En vuelo

Vuelo Hacia Hora Despegue Local Hora Arribo Local